Time,TemperatureF,DewpointF,PressureIn,WindDirection,WindDirectionDegrees,WindSpeedMPH,WindSpeedGustMPH,Humidity,HourlyPrecipIn,Conditions,Clouds,dailyrainin,SoftwareType,DateUTC
2013-01-09 00:03:00,24.0,23.0,30.34,SE,135,0.0,0.0,96,0.00,,,0.00,,2013-01-09 05:03:00,
2013-01-09 00:12:00,24.0,23.0,30.34,SE,135,0.0,0.0,96,0.00,,,0.00,,2013-01-09 05:12:00,
2013-01-09 00:22:00,24.0,23.0,30.35,ESE,112,0.0,0.0,96,0.00,,,0.00,,2013-01-09 05:22:00,
2013-01-09 00:33:00,24.0,23.0,30.35,North,0,0.0,0.0,96,0.00,,,0.00,,2013-01-09 05:33:00,
2013-01-09 00:42:00,24.0,23.0,30.35,North,0,0.0,0.0,96,0.00,,,0.00,,2013-01-09 05:42:00,
2013-01-09 00:53:00,24.0,23.0,30.35,NW,315,1.0,2.0,97,0.00,,,0.00,,2013-01-09 05:53:00,
2013-01-09 01:02:00,24.0,23.0,30.35,SE,135,0.0,1.0,96,0.00,,,0.00,,2013-01-09 06:02:00,
2013-01-09 01:12:00,24.0,23.0,30.35,SE,135,0.0,1.0,96,0.00,,,0.00,,2013-01-09 06:12:00,
2013-01-09 01:22:00,23.0,22.0,30.36,SE,135,0.0,0.0,97,0.00,,,0.00,,2013-01-09 06:22:00,
2013-01-09 01:32:00,23.0,23.0,30.37,East,90,0.0,0.0,98,0.00,,,0.00,,2013-01-09 06:32:00,
2013-01-09 01:42:00,23.0,23.0,30.37,East,90,0.0,0.0,98,0.00,,,0.00,,2013-01-09 06:42:00,
2013-01-09 01:52:00,23.0,23.0,30.38,SSE,158,0.0,0.0,98,0.00,,,0.00,,2013-01-09 06:52:00,
2013-01-09 02:02:00,23.0,23.0,30.37,SSE,158,0.0,0.0,99,0.00,,,0.00,,2013-01-09 07:02:00,
2013-01-09 02:12:00,23.0,23.0,30.37,SSE,158,0.0,0.0,99,0.00,,,0.00,,2013-01-09 07:12:00,
2013-01-09 02:22:00,23.0,23.0,30.37,East,90,0.0,0.0,99,0.00,,,0.00,,2013-01-09 07:22:00,
2013-01-09 02:32:00,23.0,23.0,30.37,SE,135,0.0,0.0,98,0.00,,,0.00,,2013-01-09 07:32:00,
2013-01-09 02:42:00,23.0,23.0,30.37,SE,135,0.0,0.0,98,0.00,,,0.00,,2013-01-09 07:42:00,
2013-01-09 02:52:00,24.0,24.0,30.37,SW,225,0.0,0.0,100,0.00,,,0.00,,2013-01-09 07:52:00,
2013-01-09 03:02:00,24.0,24.0,30.37,South,180,0.0,0.0,99,0.00,,,0.00,,2013-01-09 08:02:00,
2013-01-09 03:12:00,24.0,24.0,30.37,South,180,0.0,0.0,99,0.00,,,0.00,,2013-01-09 08:12:00,
2013-01-09 03:22:00,24.0,24.0,30.37,South,180,0.0,0.0,99,0.00,,,0.00,,2013-01-09 08:22:00,
2013-01-09 03:32:00,23.0,23.0,30.37,East,90,0.0,0.0,99,0.00,,,0.00,,2013-01-09 08:32:00,
2013-01-09 03:42:00,23.0,23.0,30.37,East,90,0.0,0.0,99,0.00,,,0.00,,2013-01-09 08:42:00,
2013-01-09 03:53:00,23.0,23.0,30.36,West,270,0.0,0.0,99,0.00,,,0.00,,2013-01-09 08:53:00,
2013-01-09 04:02:00,23.0,23.0,30.36,SE,135,0.0,0.0,99,0.00,,,0.00,,2013-01-09 09:02:00,
2013-01-09 04:12:00,23.0,23.0,30.36,SE,135,0.0,0.0,99,0.00,,,0.00,,2013-01-09 09:12:00,
2013-01-09 04:22:00,23.0,23.0,30.35,WSW,248,0.0,0.0,99,0.00,,,0.00,,2013-01-09 09:22:00,
2013-01-09 04:32:00,23.0,23.0,30.35,SE,135,0.0,0.0,99,0.00,,,0.00,,2013-01-09 09:32:00,
2013-01-09 04:42:00,23.0,23.0,30.35,SE,135,0.0,0.0,99,0.00,,,0.00,,2013-01-09 09:42:00,
2013-01-09 04:53:00,22.0,22.0,30.35,SE,135,0.0,0.0,99,0.00,,,0.00,,2013-01-09 09:53:00,
2013-01-09 05:02:00,22.0,22.0,30.35,SE,135,0.0,0.0,100,0.00,,,0.00,,2013-01-09 10:02:00,
2013-01-09 05:12:00,22.0,22.0,30.35,SE,135,0.0,0.0,100,0.00,,,0.00,,2013-01-09 10:12:00,
2013-01-09 05:22:00,22.0,22.0,30.34,SSE,158,0.0,0.0,100,0.00,,,0.00,,2013-01-09 10:22:00,
2013-01-09 05:32:00,22.0,22.0,30.35,SSE,158,0.0,0.0,100,0.00,,,0.00,,2013-01-09 10:32:00,
2013-01-09 05:42:00,22.0,22.0,30.35,SSE,158,0.0,0.0,100,0.00,,,0.00,,2013-01-09 10:42:00,
2013-01-09 05:52:00,22.0,22.0,30.36,SE,135,0.0,0.0,100,0.00,,,0.00,,2013-01-09 10:52:00,
2013-01-09 06:02:00,22.0,22.0,30.36,ESE,112,0.0,0.0,100,0.00,,,0.00,,2013-01-09 11:02:00,
2013-01-09 06:12:00,22.0,22.0,30.36,ESE,112,0.0,0.0,100,0.00,,,0.00,,2013-01-09 11:12:00,
2013-01-09 06:22:00,21.0,21.0,30.37,East,90,0.0,0.0,100,0.00,,,0.00,,2013-01-09 11:22:00,
2013-01-09 06:33:00,21.0,21.0,30.36,ENE,68,0.0,0.0,100,0.00,,,0.00,,2013-01-09 11:33:00,
2013-01-09 06:42:00,21.0,21.0,30.36,ENE,68,0.0,0.0,100,0.00,,,0.00,,2013-01-09 11:42:00,
2013-01-09 06:53:00,21.0,21.0,30.38,ESE,112,0.0,0.0,100,0.00,,,0.00,,2013-01-09 11:53:00,
2013-01-09 07:03:00,21.0,21.0,30.38,SE,135,0.0,0.0,100,0.00,,,0.00,,2013-01-09 12:03:00,
2013-01-09 07:12:00,21.0,21.0,30.38,SE,135,0.0,0.0,100,0.00,,,0.00,,2013-01-09 12:12:00,
2013-01-09 07:23:00,21.0,21.0,30.39,NE,45,0.0,0.0,100,0.00,,,0.00,,2013-01-09 12:23:00,
2013-01-09 07:33:00,21.0,21.0,30.39,North,0,0.0,0.0,100,0.00,,,0.00,,2013-01-09 12:33:00,
2013-01-09 07:43:00,21.0,21.0,30.39,North,0,0.0,0.0,100,0.00,,,0.00,,2013-01-09 12:43:00,
2013-01-09 07:53:00,21.0,21.0,30.40,East,90,0.0,0.0,100,0.00,,,0.00,,2013-01-09 12:53:00,
2013-01-09 08:03:00,21.0,21.0,30.40,SSE,158,0.0,0.0,100,0.00,,,0.00,,2013-01-09 13:03:00,
2013-01-09 08:12:00,21.0,21.0,30.40,SSE,158,0.0,0.0,100,0.00,,,0.00,,2013-01-09 13:12:00,
2013-01-09 08:23:00,22.0,22.0,30.39,East,90,0.0,0.0,100,0.00,,,0.00,,2013-01-09 13:23:00,
2013-01-09 08:33:00,24.0,24.0,30.39,ENE,68,0.0,0.0,100,0.00,,,0.00,,2013-01-09 13:33:00,
2013-01-09 08:43:00,24.0,24.0,30.39,ENE,68,0.0,0.0,100,0.00,,,0.00,,2013-01-09 13:43:00,
2013-01-09 08:53:00,27.0,27.0,30.39,SE,135,0.0,0.0,99,0.00,,,0.00,,2013-01-09 13:53:00,
2013-01-09 09:03:00,28.0,27.0,30.38,NE,45,0.0,0.0,96,0.00,,,0.00,,2013-01-09 14:03:00,
2013-01-09 09:12:00,28.0,27.0,30.38,NE,45,0.0,0.0,96,0.00,,,0.00,,2013-01-09 14:12:00,
2013-01-09 09:23:00,30.0,28.0,30.38,NE,45,1.0,1.0,92,0.00,,,0.00,,2013-01-09 14:23:00,
2013-01-09 09:33:00,30.0,27.0,30.38,ENE,68,1.0,3.0,89,0.00,,,0.00,,2013-01-09 14:33:00,
2013-01-09 09:43:00,30.0,27.0,30.38,ENE,68,1.0,3.0,89,0.00,,,0.00,,2013-01-09 14:43:00,
2013-01-09 09:53:00,31.0,28.0,30.36,NE,45,1.0,1.0,89,0.00,,,0.00,,2013-01-09 14:53:00,
2013-01-09 10:03:00,32.0,29.0,30.37,ESE,112,0.0,1.0,88,0.00,,,0.00,,2013-01-09 15:03:00,
2013-01-09 10:13:00,32.0,29.0,30.37,ESE,112,0.0,1.0,88,0.00,,,0.00,,2013-01-09 15:13:00,
2013-01-09 10:23:00,33.0,28.0,30.37,ENE,68,0.0,1.0,83,0.00,,,0.00,,2013-01-09 15:23:00,
2013-01-09 10:33:00,34.0,30.0,30.36,SE,135,1.0,1.0,84,0.00,,,0.00,,2013-01-09 15:33:00,
2013-01-09 10:43:00,34.0,30.0,30.36,SE,135,1.0,1.0,84,0.00,,,0.00,,2013-01-09 15:43:00,
2013-01-09 10:53:00,35.0,30.0,30.34,ENE,68,1.0,2.0,81,0.00,,,0.00,,2013-01-09 15:53:00,
2013-01-09 11:03:00,35.0,29.0,30.32,East,90,1.0,2.0,79,0.00,,,0.00,,2013-01-09 16:03:00,
2013-01-09 11:12:00,35.0,29.0,30.32,East,90,1.0,2.0,79,0.00,,,0.00,,2013-01-09 16:12:00,
2013-01-09 11:23:00,36.0,29.0,30.31,ENE,68,1.0,2.0,77,0.00,,,0.00,,2013-01-09 16:23:00,
2013-01-09 11:33:00,37.0,30.0,30.29,NNE,22,1.0,2.0,75,0.00,,,0.00,,2013-01-09 16:33:00,
2013-01-09 11:43:00,37.0,30.0,30.29,NNE,22,1.0,2.0,75,0.00,,,0.00,,2013-01-09 16:43:00,
2013-01-09 11:53:00,38.0,30.0,30.28,ENE,68,1.0,2.0,73,0.00,,,0.00,,2013-01-09 16:53:00,
2013-01-09 12:03:00,39.0,31.0,30.28,WNW,292,0.0,0.0,74,0.00,,,0.00,,2013-01-09 17:03:00,
2013-01-09 12:12:00,39.0,31.0,30.28,WNW,292,0.0,0.0,74,0.00,,,0.00,,2013-01-09 17:12:00,
2013-01-09 12:23:00,38.0,31.0,30.26,SE,135,0.0,0.0,75,0.00,,,0.00,,2013-01-09 17:23:00,
2013-01-09 12:33:00,38.0,31.0,30.26,SSE,158,0.0,0.0,76,0.00,,,0.00,,2013-01-09 17:33:00,
2013-01-09 12:43:00,38.0,31.0,30.26,SSE,158,0.0,0.0,76,0.00,,,0.00,,2013-01-09 17:43:00,
2013-01-09 12:53:00,40.0,33.0,30.24,East,90,1.0,1.0,75,0.00,,,0.00,,2013-01-09 17:53:00,
2013-01-09 13:03:00,40.0,32.0,30.22,ESE,112,0.0,1.0,72,0.00,,,0.00,,2013-01-09 18:03:00,
2013-01-09 13:12:00,40.0,32.0,30.22,ESE,112,0.0,1.0,72,0.00,,,0.00,,2013-01-09 18:12:00,
2013-01-09 13:24:00,41.0,33.0,30.20,ESE,112,0.0,0.0,72,0.00,,,0.00,,2013-01-09 18:24:00,
2013-01-09 13:33:00,41.0,33.0,30.19,SSE,158,0.0,1.0,73,0.00,,,0.00,,2013-01-09 18:33:00,
2013-01-09 13:43:00,41.0,33.0,30.19,SSE,158,0.0,1.0,73,0.00,,,0.00,,2013-01-09 18:43:00,
2013-01-09 13:53:00,40.0,32.0,30.16,SE,135,0.0,0.0,73,0.00,,,0.00,,2013-01-09 18:53:00,
2013-01-09 14:03:00,40.0,32.0,30.14,SSW,202,0.0,0.0,73,0.00,,,0.00,,2013-01-09 19:03:00,
2013-01-09 14:13:00,40.0,32.0,30.14,SSW,202,0.0,0.0,73,0.00,,,0.00,,2013-01-09 19:13:00,
2013-01-09 14:23:00,39.0,32.0,30.14,NW,315,3.0,5.0,75,0.00,,,0.00,,2013-01-09 19:23:00,
2013-01-09 14:33:00,39.0,33.0,30.14,SSE,158,1.0,3.0,78,0.00,,,0.00,,2013-01-09 19:33:00,
2013-01-09 14:43:00,39.0,33.0,30.14,SSE,158,1.0,3.0,78,0.00,,,0.00,,2013-01-09 19:43:00,
2013-01-09 14:53:00,39.0,33.0,30.16,South,180,1.0,3.0,79,0.00,,,0.00,,2013-01-09 19:53:00,
2013-01-09 15:03:00,39.0,33.0,30.16,ENE,68,0.0,1.0,80,0.00,,,0.00,,2013-01-09 20:03:00,
2013-01-09 15:12:00,39.0,33.0,30.16,ENE,68,0.0,1.0,80,0.00,,,0.00,,2013-01-09 20:12:00,
2013-01-09 15:23:00,38.0,33.0,30.15,SSE,158,1.0,3.0,82,0.00,,,0.00,,2013-01-09 20:23:00,
2013-01-09 15:33:00,38.0,34.0,30.14,South,180,2.0,3.0,84,0.00,,,0.00,,2013-01-09 20:33:00,
2013-01-09 15:43:00,38.0,34.0,30.14,South,180,2.0,3.0,84,0.00,,,0.00,,2013-01-09 20:43:00,
2013-01-09 15:53:00,37.0,33.0,30.11,South,180,1.0,2.0,86,0.00,,,0.00,,2013-01-09 20:53:00,
2013-01-09 16:03:00,37.0,33.0,30.10,SE,135,1.0,2.0,86,0.00,,,0.00,,2013-01-09 21:03:00,
2013-01-09 16:13:00,37.0,33.0,30.10,SE,135,1.0,2.0,86,0.00,,,0.00,,2013-01-09 21:13:00,
2013-01-09 16:23:00,36.0,33.0,30.08,SW,225,3.0,5.0,88,0.00,,,0.00,,2013-01-09 21:23:00,
2013-01-09 16:33:00,36.0,33.0,30.08,South,180,2.0,3.0,89,0.00,,,0.00,,2013-01-09 21:33:00,
2013-01-09 16:43:00,36.0,33.0,30.08,South,180,2.0,3.0,89,0.00,,,0.00,,2013-01-09 21:43:00,
2013-01-09 16:52:00,35.0,33.0,30.06,WSW,248,0.0,1.0,92,0.00,,,0.00,,2013-01-09 21:52:00,
2013-01-09 16:53:00,36.0,34.0,30.05,SSE,158,0.0,1.0,91,0.00,,,0.00,,2013-01-09 21:53:00,
2013-01-09 17:03:00,35.0,33.0,30.06,SW,225,0.0,1.0,92,0.00,,,0.00,,2013-01-09 22:03:00,
2013-01-09 17:12:00,35.0,33.0,30.06,SW,225,0.0,1.0,92,0.00,,,0.00,,2013-01-09 22:12:00,
2013-01-09 17:23:00,35.0,33.0,30.06,WSW,248,0.0,1.0,92,0.00,,,0.00,,2013-01-09 22:23:00,
2013-01-09 17:33:00,35.0,33.0,30.06,WSW,248,0.0,1.0,92,0.00,,,0.00,,2013-01-09 22:33:00,
2013-01-09 17:43:00,35.0,33.0,30.06,WSW,248,0.0,1.0,92,0.00,,,0.00,,2013-01-09 22:43:00,
2013-01-09 20:03:00,39.0,36.0,29.92,SE,135,1.0,2.0,89,0.00,,,0.00,,2013-01-10 01:03:00,
2013-01-09 20:12:00,39.0,36.0,29.92,SE,135,1.0,2.0,89,0.00,,,0.00,,2013-01-10 01:12:00,
2013-01-09 20:22:00,39.0,35.0,29.92,SSE,158,1.0,1.0,87,0.00,,,0.00,,2013-01-10 01:22:00,
2013-01-09 20:33:00,39.0,35.0,29.93,East,90,1.0,3.0,87,0.00,,,0.00,,2013-01-10 01:33:00,
2013-01-09 20:43:00,39.0,35.0,29.93,East,90,1.0,3.0,87,0.00,,,0.00,,2013-01-10 01:43:00,
2013-01-09 20:53:00,38.0,35.0,29.92,South,180,2.0,2.0,89,0.00,,,0.00,,2013-01-10 01:53:00,
2013-01-09 21:03:00,37.0,34.0,29.92,South,180,1.0,2.0,89,0.00,,,0.00,,2013-01-10 02:03:00,
2013-01-09 21:12:00,37.0,34.0,29.92,South,180,1.0,2.0,89,0.00,,,0.00,,2013-01-10 02:12:00,
2013-01-09 21:22:00,36.0,34.0,29.90,SSE,158,2.0,6.0,91,0.00,,,0.00,,2013-01-10 02:22:00,
2013-01-09 21:32:00,36.0,33.0,29.90,East,90,3.0,5.0,90,0.00,,,0.00,,2013-01-10 02:32:00,
2013-01-09 21:42:00,36.0,33.0,29.90,East,90,3.0,5.0,90,0.00,,,0.00,,2013-01-10 02:42:00,
2013-01-09 21:53:00,36.0,33.0,29.90,East,90,3.0,5.0,90,0.00,,,0.00,,2013-01-10 02:53:00,
2013-01-09 22:03:00,36.0,33.0,29.89,SSE,158,3.0,6.0,88,0.00,,,0.00,,2013-01-10 03:03:00,
2013-01-09 22:12:00,36.0,33.0,29.89,SSE,158,3.0,6.0,88,0.00,,,0.00,,2013-01-10 03:12:00,
2013-01-09 22:22:00,35.0,32.0,29.89,South,180,1.0,2.0,88,0.00,,,0.00,,2013-01-10 03:22:00,
2013-01-09 22:33:00,35.0,32.0,29.88,SSW,202,6.0,13.0,88,0.00,,,0.00,,2013-01-10 03:33:00,
2013-01-09 22:42:00,35.0,32.0,29.88,SSW,202,6.0,13.0,88,0.00,,,0.00,,2013-01-10 03:42:00,
2013-01-09 22:53:00,34.0,31.0,29.90,SE,135,3.0,4.0,88,0.00,,,0.00,,2013-01-10 03:53:00,
2013-01-09 23:02:00,34.0,31.0,29.90,NNE,22,3.0,6.0,88,0.00,,,0.00,,2013-01-10 04:02:00,
2013-01-09 23:12:00,34.0,31.0,29.90,NNE,22,3.0,6.0,88,0.00,,,0.00,,2013-01-10 04:12:00,
2013-01-09 23:22:00,33.0,30.0,29.89,NW,315,1.0,4.0,88,0.00,,,0.00,,2013-01-10 04:22:00,
2013-01-09 23:32:00,33.0,30.0,29.89,SSE,158,2.0,4.0,88,0.00,,,0.00,,2013-01-10 04:32:00,
2013-01-09 23:43:00,33.0,30.0,29.89,SSE,158,2.0,4.0,88,0.00,,,0.00,,2013-01-10 04:43:00,
2013-01-09 23:53:00,33.0,30.0,29.90,East,90,1.0,2.0,89,0.00,,,0.00,,2013-01-10 04:53:00,